Location: Serino
(40.8500°N, 14.8500°E)
Time: 14:59:19
(UTC+00:00)

Daily predictions for brighter satellites

Satellite Brightness Start Highest point End
(mag) Time Altitude Azimuth Time Altitude Azimuth Time Altitude Azimuth
Cosmos 2195 Rocket 4.5 15:53:09 10° N 15:59:20 71° E 16:05:33 10° SSE
Cosmos 1812 3.4 15:56:39 10° SSE 16:00:09 34° E 16:03:40 10° NNE
Cosmos 2369 3.7 15:56:21 10° NNW 16:02:07 76° ENE 16:07:48 10° SSE
Okean O Rocket 3.4 16:00:43 10° E 16:02:34 12° ENE 16:04:25 10° NE
X-37B 1.6 16:00:59 10° SW 16:03:36 32° SSE 16:06:14 10° E
CZ-2C R/B 2.9 15:59:16 10° SSE 16:04:08 89° E 16:08:55 10° NNW
Cosmos 2082 Rocket 2.3 16:01:11 10° SSW 16:06:53 87° WNW 16:12:34 10° NNE
SL-16 R/B 3.4 16:03:08 10° N 16:07:15 20° NE 16:11:21 10° E
Cosmos 540 Rocket 4.1 16:02:52 10° SSW 16:07:52 56° WNW 16:12:54 10° N
ARGOS 4.4 16:04:52 10° ESE 16:08:34 19° ENE 16:12:16 10° NNE
Sich 1 3.0 16:06:52 10° N 16:11:10 73° E 16:15:30 10° SSE
FengYun 1-2 T 4.2 16:06:17 10° SSE 16:11:50 75° ENE 16:17:22 10° N
COSMOS 2455 3.4 16:07:45 10° SW 16:13:41 60° WNW 16:19:40 10° NNE
SMAP 3.1 16:10:04 10° SSE 16:14:38 61° ENE 16:19:14 10° N
NOAA 6 4.0 16:11:01 10° SSE 16:16:04 63° ENE 16:21:09 10° N
Cosmos 1833 Rocket 4.3 16:15:32 10° WSW 16:20:31 32° WNW 16:25:32 10° N
Cosmos 1805 Rocket 4.1 16:19:23 10° NNW 16:23:40 62° W 16:27:56 10° S
Cosmos 2278 3.7 16:18:54 10° NNW 16:24:35 64° ENE 16:30:12 10° SE
CZ-4B DEB 4.2 16:19:49 10° SSE 16:25:13 59° ENE 16:30:36 10° N
CZ-4B R/B 4.0 16:26:57 10° S 16:30:47 47° W 16:34:29 10° NNW
USA 305 4.4 16:27:41 10° NNW 16:30:52 20° NNE 16:32:51 15° NE
CZ-2C R/B 3.1 16:27:26 10° NNE 16:32:10 36° E 16:36:54 10° SSE
SL-24 R/B - RUBIN 2 4.1 16:29:27 10° NW 16:33:49 60° WSW 16:38:03 10° SSE
Cosmos 1500 3.8 16:33:07 10° NNW 16:36:48 58° W 16:40:26 10° S
Meteor 1-14 Rocket 4.3 16:31:25 10° N 16:37:20 76° E 16:43:17 10° SSE
Cosmos 44 Rocket 3.4 16:33:53 10° NNW 16:38:39 50° NE 16:43:15 10° SE
Cosmos 1515 Rocket 4.2 16:35:21 10° SSE 16:39:20 34° E 16:43:15 10° NNE
Cosmos 1814 Rocket 4.4 16:35:31 10° SSW 16:40:42 64° WNW 16:45:51 10° NNE
Meteor 2-16 Rocket 4.4 16:35:25 10° N 16:41:33 75° E 16:47:40 10° SSE
Cosmos 921 Rocket 2.9 16:37:42 10° S 16:41:50 61° ESE 16:45:57 10° NNE
Cosmos 1570 Rocket 4.4 16:42:22 10° SSW 16:47:33 64° WNW 16:52:46 10° NNE
CZ-4B R/B 3.2 16:46:06 10° SE 16:51:19 52° ENE 16:56:29 10° N
MOS 1-B Rocket 4.2 16:47:18 10° NNE 16:53:30 80° ESE 17:00:42 10° SSW
CZ-2D R/B 3.1 16:49:56 10° SSE 16:53:45 88° E 16:57:35 10° NNW
MOS 1-B 4.3 16:50:22 10° SSE 16:56:08 78° ENE 17:01:56 10° NNW
USA 267 3.7 16:50:26 13° NE 16:56:10 55° NW 17:02:29 10° WSW
Cosmos 2298 Rocket 4.1 16:52:11 10° NNW 16:57:26 57° ENE 17:02:39 10° SSE
ATLAS CENTAUR R/B 4.2 16:50:34 10° W 16:57:55 27° NW 17:01:31 11° NNE
Cosmos 1151 Rocket 3.9 16:55:35 10° SSW 16:59:47 50° W 17:04:02 10° N
Meteor 1-27 Rocket 4.0 16:54:41 10° SSE 16:59:49 41° E 17:04:01 15° NNE
CZ-4C R/B 4.2 17:03:22 24° SE 17:03:22 24° SE 17:05:22 10° SSE
Meteor 2-6 Rocket 4.3 16:56:59 10° SSW 17:02:43 80° W 17:08:19 10° N
APEX 2.9 16:58:48 10° SSW 17:02:44 82° WNW 17:04:24 28° NNE
COSMO-SKYMED 1 2.5 16:59:10 11° NNE 17:03:22 69° E 17:07:40 10° S
USA 306 3.9 16:59:48 10° NNW 17:03:27 27° NNE 17:03:51 26° NE
Cosmos 1633 Rocket 3.4 16:59:28 10° NNW 17:03:49 66° W 17:08:10 10° S
SJ-11-01 4.3 16:59:35 10° SSE 17:04:13 55° ENE 17:08:50 10° N
Cosmos 1666 3.6 17:01:55 10° NNW 17:05:30 48° W 17:09:04 10° SSW
PAYLOAD B 4.4 17:00:37 10° SSE 17:06:13 80° WSW 17:11:51 10° NNW
Landsat 5 3.5 17:05:03 30° NE 17:06:36 48° E 17:10:23 10° S
Cosmos 2360 Rocket 3.1 17:03:38 10° N 17:08:17 27° NE 17:08:17 27° NE
Genesis I 4.2 17:05:13 10° S 17:08:21 28° ESE 17:08:21 28° ESE
ISS -1.7 17:05:59 10° WNW 17:08:56 28° SW 17:11:52 10° SSE
Helios 1B 4.4 17:06:10 13° NNE 17:09:59 78° ESE 17:14:18 10° S
Cosmos 1818 3.6 17:08:46 10° NW 17:14:16 82° WSW 17:19:41 10° SSE
CZ-2C R/B 2.4 17:13:52 10° WSW 17:17:51 37° S 17:19:13 29° SE
Meteor 2-15 4.5 17:11:54 10° S 17:18:00 81° W 17:24:07 10° N
DMSP B5D2-2 4.5 17:19:40 38° E 17:20:18 39° E 17:25:11 10° SSE
ATLAS 5 CENTAUR R/B 2.8 17:15:54 10° NNW 17:19:39 29° N 17:19:39 29° N
SL-08 RB Rocket 3.7 17:18:22 10° SSE 17:22:54 57° ENE 17:27:24 10° N
Cosmos 2266 Rocket 4.0 17:16:43 10° N 17:23:10 82° E 17:29:35 10° S
USA 307 3.9 17:20:17 10° NW 17:23:33 31° NNE 17:23:33 31° NNE
CZ-4C R/B 3.7 17:18:09 10° NW 17:25:35 58° WSW 17:33:58 10° SSE
Lacrosse 5 rocket 1.4 17:23:25 10° NW 17:27:25 77° SW 17:28:57 37° SSE
USA 234 3.2 17:22:36 16° SE 17:27:57 82° NE 17:34:31 10° NW
ATLAS 2AS CENTAUR R/B 4.5 17:27:06 10° NNW 17:30:57 15° NNE 17:31:18 15° NNE
Tiangong 2.5 17:28:00 10° SW 17:30:10 31° SSW 17:30:10 31° SSW
Cosmos 1933 Rocket 3.4 17:26:37 10° N 17:30:58 85° E 17:35:18 10° S
Cosmos 2322 Rocket 2.1 17:25:39 10° NNW 17:31:19 64° ENE 17:35:03 22° SE
Cosmos 2150 Rocket 4.1 17:27:47 10° NNW 17:32:59 75° WSW 17:38:13 10° S
Cosmos 1867 3.6 17:30:53 10° SW 17:36:20 81° WNW 17:38:27 39° NNE
NOSS 3-3 (A) 3.7 17:30:57 10° SSW 17:36:30 73° ESE 17:38:22 45° NE
H-2A R/B 3.2 17:31:41 10° S 17:36:33 42° W 17:41:19 10° NNW
NOSS 3-3 (C) 3.7 17:31:04 10° SSW 17:36:36 72° ESE 17:38:27 45° NE
Cosmos 1470 Rocket 4.5 17:32:38 10° NNW 17:36:58 50° W 17:41:17 10° SSW
Cosmos 1544 3.7 17:33:30 10° NNW 17:37:02 54° W 17:40:35 10° S
Okean O Rocket 1.9 17:33:54 10° S 17:38:19 68° WSW 17:42:47 10° NNW
DEBRIS 2.7 17:36:10 10° SW 17:38:35 81° S 17:38:35 81° S
X-37B 2.4 17:36:11 10° W 17:37:49 28° WNW 17:37:49 28° WNW
Cosmos 1125 Rocket 3.7 17:33:58 10° NNW 17:39:13 72° WSW 17:44:28 10° S
USA 32 4.0 17:36:30 10° S 17:41:44 82° W 17:46:22 13° N
Meteor 1-11 Rocket 3.9 17:38:39 10° NNW 17:44:19 74° W 17:50:05 10° S
USA 308 4.2 17:42:51 10° NW 17:45:22 30° NNW 17:45:22 30° NNW
ARGOS 3.7 17:43:00 10° S 17:48:20 59° W 17:53:40 10° NNW
SL-16 R/B 2.5 17:46:14 10° NNW 17:51:52 66° WSW 17:57:27 10° S
Cosmos 2333 Rocket 4.0 18:06:26 10° NNW 18:08:05 19° N 18:08:05 19° N
CZ-2C R/B 4.4 18:08:00 10° N 18:12:19 27° WNW 18:16:37 10° WSW
Cosmos 2219 Rocket 4.4 18:14:26 10° N 18:15:05 13° N 18:15:05 13° N
Cosmos 2360 Rocket 3.8 18:47:12 10° NW 18:50:08 29° NW 18:50:08 29° NW
